Terug naar catalogus

GLOBALSTAR M080

ActiefCommunicatieLEO
NORAD 38041·PAYLOAD·🇺🇸 United States

Gelanceerd Dec 28, 2011 vanaf Baikonur Cosmodrome

Loading…

Volgende Passages (komende 24 uur)

TLE

VersSource: Space-Track

Epoch: Sep 14, 2026, 15:11 UTC

1 38041U 11080B   26257.63319972 -.00000091  00000-0  71468-4 0  9999
2 38041  52.0046 106.7293 0001177  88.5759 306.6795 12.62258801680185

Volg GLOBALSTAR M080 in realtime met AllMySat

Download on the App Store